| time (UTC) | temp F | wind direction | speed MPH | gust MPH | rain 1hr in | rain 24hr in | rain mn in | humidity % | barometer mb |
| 20260503034005 | 47 | 30 | 0.0 | 0.0 | 0.00 | 0.00 | 0.00 | 90 | 1010.5 |
| 20260503033507 | 47 | 36 | 0.0 | 0.0 | 0.00 | 0.00 | 0.00 | 90 | 1010.3 |
| 20260503033003 | 47 | 44 | 0.0 | 0.0 | 0.00 | 0.00 | 0.00 | 90 | 1010.1 |
| 20260503032505 | 47 | 44 | 0.0 | 0.0 | 0.00 | 0.00 | 0.00 | 90 | 1010.0 |
| 20260503032003 | 47 | 44 | 0.0 | 0.0 | 0.00 | 0.00 | 0.00 | 90 | 1010.4 |
| 20260503031507 | 47 | 44 | 0.0 | 0.0 | 0.00 | 0.00 | 0.00 | 90 | 1010.3 |
| 20260503031007 | 47 | 44 | 0.0 | 0.0 | 0.00 | 0.00 | 0.00 | 90 | 1010.5 |
| 20260503030504 | 47 | 44 | 0.0 | 0.0 | 0.00 | 0.00 | 0.00 | 90 | 1010.5 |
| 20260503030009 | 47 | 44 | 0.0 | 0.0 | 0.00 | 0.00 | 0.00 | 89 | 1010.6 |
| 20260503025506 | 47 | 44 | 0.0 | 0.0 | 0.00 | 0.00 | 0.00 | 89 | 1010.6 |
| 20260503025009 | 47 | 44 | 0.0 | 0.0 | 0.00 | 0.00 | 0.00 | 89 | 1010.4 |
| 20260503024516 | 47 | 44 | 0.0 | 0.0 | 0.00 | 0.00 | 0.00 | 89 | 1010.4 |
| 20260503024003 | 47 | 39 | 0.0 | 0.0 | 0.00 | 0.00 | 0.00 | 89 | 1010.4 |
| 20260503023505 | 47 | 39 | 0.0 | 0.0 | 0.00 | 0.00 | 0.00 | 89 | 1010.6 |
| 20260503023004 | 47 | 39 | 0.0 | 0.0 | 0.00 | 0.00 | 0.00 | 89 | 1010.5 |
| 20260503022506 | 47 | 39 | 0.0 | 0.0 | 0.00 | 0.00 | 0.00 | 89 | 1010.7 |
| 20260503022004 | 47 | 39 | 0.0 | 0.0 | 0.00 | 0.00 | 0.00 | 89 | 1010.6 |
| 20260503021507 | 47 | 39 | 0.0 | 0.0 | 0.00 | 0.00 | 0.00 | 89 | 1010.6 |
| 20260503021003 | 47 | 39 | 0.0 | 0.0 | 0.00 | 0.00 | 0.00 | 88 | 1010.6 |
| 20260503020504 | 47 | 39 | 0.0 | 0.0 | 0.00 | 0.00 | 0.00 | 88 | 1010.8 |
| 20260503020009 | 47 | 39 | 0.0 | 0.0 | 0.00 | 0.00 | 0.00 | 88 | 1010.8 |
| 20260503015504 | 47 | 36 | 0.0 | 0.0 | 0.00 | 0.00 | 0.00 | 88 | 1010.8 |
| 20260503015003 | 48 | 78 | 0.0 | 0.0 | 0.00 | 0.00 | 0.00 | 88 | 1010.9 |
| 20260503014522 | 48 | 78 | 0.0 | 0.0 | 0.00 | 0.00 | 0.00 | 88 | 1011.0 |
| 20260503014006 | 48 | 78 | 0.0 | 2.0 | 0.00 | 0.00 | 0.00 | 88 | 1010.8 |
| 20260503013504 | 48 | 84 | 0.0 | 3.0 | 0.00 | 0.00 | 0.00 | 88 | 1010.8 |
| 20260503013025 | 48 | 83 | 0.0 | 3.0 | 0.00 | 0.00 | 0.00 | 88 | 1010.8 |
| 20260503012512 | 49 | 144 | 0.0 | 0.0 | 0.00 | 0.00 | 0.00 | 88 | 1010.6 |
| 20260503012003 | 49 | 144 | 0.0 | 0.0 | 0.00 | 0.00 | 0.00 | 87 | 1010.6 |
| 20260503011504 | 49 | 144 | 0.0 | 0.0 | 0.00 | 0.00 | 0.00 | 88 | 1010.4 |
| 20260503011004 | 49 | 144 | 0.0 | 0.0 | 0.00 | 0.00 | 0.00 | 88 | 1010.4 |
| 20260503010503 | 49 | 144 | 0.0 | 0.0 | 0.00 | 0.00 | 0.00 | 87 | 1010.7 |
| 20260503010008 | 49 | 144 | 0.0 | 0.0 | 0.00 | 0.00 | 0.00 | 87 | 1010.6 |
| 20260503005502 | 49 | 144 | 0.0 | 0.0 | 0.00 | 0.00 | 0.00 | 87 | 1010.6 |
| 20260503005003 | 49 | 144 | 0.0 | 0.0 | 0.00 | 0.00 | 0.00 | 87 | 1010.5 |
| 20260503004511 | 50 | 144 | 0.0 | 0.0 | 0.00 | 0.00 | 0.00 | 87 | 1010.4 |
| 20260503004007 | 50 | 144 | 0.0 | 0.0 | 0.00 | 0.00 | 0.00 | 87 | 1010.4 |
| 20260503003503 | 50 | 141 | 0.0 | 0.0 | 0.00 | 0.00 | 0.00 | 87 | 1010.3 |
| 20260503003016 | 50 | 141 | 0.0 | 0.0 | 0.00 | 0.00 | 0.00 | 87 | 1010.3 |
| 20260503002510 | 50 | 153 | 0.0 | 0.0 | 0.00 | 0.00 | 0.00 | 87 | 1010.2 |
| 20260503002012 | 50 | 162 | 0.0 | 0.0 | 0.00 | 0.00 | 0.00 | 87 | 1010.2 |
| 20260503001520 | 50 | 162 | 0.0 | 0.0 | 0.00 | 0.00 | 0.00 | 86 | 1010.2 |
| 20260503001008 | 51 | 162 | 0.0 | 0.0 | 0.00 | 0.00 | 0.00 | 86 | 1010.1 |
| 20260503000504 | 51 | 162 | 0.0 | 0.0 | 0.00 | 0.00 | 0.00 | 86 | 1010.1 |
| 20260503000013 | 51 | 162 | 0.0 | 0.0 | 0.00 | 0.00 | 0.00 | 86 | 1010.0 |
| 20260502235503 | 51 | 162 | 0.0 | 0.0 | 0.00 | 0.00 | 0.00 | 86 | 1010.1 |
| 20260502235004 | 51 | 162 | 0.0 | 0.0 | 0.00 | 0.00 | 0.00 | 86 | 1010.1 |
| 20260502234508 | 51 | 162 | 0.0 | 0.0 | 0.00 | 0.00 | 0.00 | 86 | 1009.9 |
| 20260502234004 | 51 | 159 | 0.0 | 0.0 | 0.00 | 0.00 | 0.00 | 86 | 1010.0 |
| 20260502233504 | 51 | 149 | 0.0 | 0.0 | 0.00 | 0.00 | 0.00 | 86 | 1010.0 |
| 20260502233013 | 51 | 169 | 0.0 | 0.0 | 0.00 | 0.00 | 0.00 | 86 | 1010.1 |
| 20260502232504 | 51 | 150 | 0.0 | 0.0 | 0.00 | 0.00 | 0.00 | 86 | 1010.1 |
| 20260502232006 | 51 | 183 | 0.0 | 0.0 | 0.00 | 0.00 | 0.00 | 86 | 1010.1 |
| 20260502231518 | 51 | 183 | 0.0 | 2.0 | 0.00 | 0.00 | 0.00 | 85 | 1010.2 |
| 20260502231007 | 52 | 183 | 0.0 | 3.0 | 0.00 | 0.00 | 0.00 | 85 | 1010.3 |
| 20260502230509 | 52 | 184 | 1.0 | 2.0 | 0.00 | 0.00 | 0.00 | 85 | 1010.3 |
| 20260502230024 | 52 | 176 | 0.0 | 0.0 | 0.00 | 0.00 | 0.00 | 85 | 1010.2 |
| 20260502225510 | 52 | 175 | 0.0 | 0.0 | 0.00 | 0.00 | 0.00 | 85 | 1010.1 |
| 20260502225001 | 52 | 187 | 0.0 | 2.0 | 0.00 | 0.00 | 0.00 | 85 | 1010.0 |
| 20260502224508 | 52 | 192 | 0.0 | 2.0 | 0.00 | 0.00 | 0.00 | 85 | 1010.3 |
| 20260502224003 | 52 | 144 | 0.0 | 0.0 | 0.00 | 0.00 | 0.00 | 85 | 1010.3 |
| 20260502223503 | 52 | 118 | 0.0 | 0.0 | 0.00 | 0.00 | 0.00 | 84 | 1010.2 |
| 20260502223012 | 52 | 160 | 0.0 | 4.0 | 0.00 | 0.00 | 0.00 | 84 | 1010.2 |
| 20260502222508 | 52 | 205 | 0.0 | 4.0 | 0.00 | 0.00 | 0.00 | 84 | 1010.1 |
| 20260502222008 | 53 | 185 | 1.0 | 4.0 | 0.00 | 0.00 | 0.00 | 85 | 1010.0 |
| 20260502221513 | 52 | 216 | 0.0 | 5.0 | 0.00 | 0.00 | 0.00 | 85 | 1010.0 |
| 20260502221006 | 52 | 191 | 2.0 | 5.0 | 0.00 | 0.00 | 0.00 | 85 | 1009.9 |
| 20260502220508 | 52 | 160 | 2.0 | 4.0 | 0.00 | 0.00 | 0.00 | 84 | 1009.9 |
| 20260502220031 | 52 | 201 | 0.0 | 4.0 | 0.00 | 0.00 | 0.00 | 84 | 1009.8 |
| 20260502215509 | 52 | 196 | 1.0 | 3.0 | 0.00 | 0.00 | 0.00 | 84 | 1009.9 |
| 20260502215007 | 52 | 188 | 0.0 | 5.0 | 0.00 | 0.00 | 0.00 | 84 | 1009.9 |
| 20260502214523 | 52 | 188 | 2.0 | 6.0 | 0.00 | 0.00 | 0.00 | 84 | 1010.0 |
| 20260502214009 | 52 | 189 | 2.0 | 6.0 | 0.00 | 0.00 | 0.00 | 84 | 1010.1 |
| 20260502213505 | 52 | 176 | 2.0 | 8.0 | 0.00 | 0.00 | 0.00 | 84 | 1010.1 |
| 20260502213008 | 53 | 203 | 3.0 | 8.0 | 0.00 | 0.00 | 0.00 | 84 | 1010.0 |
| 20260502212504 | 53 | 182 | 3.0 | 6.0 | 0.00 | 0.00 | 0.00 | 84 | 1010.0 |
| 20260502212006 | 53 | 177 | 1.0 | 6.0 | 0.00 | 0.00 | 0.00 | 84 | 1010.1 |
| 20260502211521 | 53 | 186 | 3.0 | 6.0 | 0.00 | 0.00 | 0.00 | 84 | 1010.2 |
| 20260502211010 | 53 | 195 | 1.0 | 4.0 | 0.00 | 0.00 | 0.00 | 84 | 1010.1 |
| 20260502210506 | 53 | 165 | 1.0 | 2.0 | 0.00 | 0.00 | 0.00 | 84 | 1010.0 |
| 20260502210016 | 52 | 194 | 1.0 | 5.0 | 0.00 | 0.00 | 0.00 | 85 | 1009.9 |
| 20260502205510 | 52 | 178 | 1.0 | 5.0 | 0.00 | 0.00 | 0.00 | 85 | 1010.1 |
| 20260502205008 | 52 | 181 | 3.0 | 5.0 | 0.00 | 0.00 | 0.00 | 85 | 1010.1 |
| 20260502204522 | 52 | 179 | 2.0 | 5.0 | 0.00 | 0.00 | 0.00 | 85 | 1010.1 |
| 20260502204009 | 52 | 175 | 1.0 | 5.0 | 0.00 | 0.00 | 0.00 | 86 | 1010.1 |
| 20260502203511 | 52 | 194 | 1.0 | 6.0 | 0.00 | 0.00 | 0.00 | 86 | 1010.1 |
| 20260502203024 | 52 | 159 | 2.0 | 6.0 | 0.00 | 0.00 | 0.00 | 86 | 1010.1 |
| 20260502202509 | 52 | 190 | 1.0 | 6.0 | 0.00 | 0.00 | 0.00 | 86 | 1010.3 |
| 20260502202003 | 52 | 175 | 3.0 | 6.0 | 0.00 | 0.00 | 0.00 | 86 | 1010.3 |
| 20260502201508 | 52 | 177 | 2.0 | 6.0 | 0.00 | 0.00 | 0.00 | 86 | 1010.5 |
| 20260502201004 | 52 | 182 | 2.0 | 7.0 | 0.00 | 0.00 | 0.00 | 86 | 1010.6 |
| 20260502200506 | 51 | 162 | 4.0 | 9.0 | 0.00 | 0.00 | 0.00 | 86 | 1010.6 |
| 20260502200016 | 51 | 182 | 4.0 | 9.0 | 0.00 | 0.00 | 0.00 | 86 | 1010.6 |
| 20260502195507 | 51 | 153 | 5.0 | 9.0 | 0.00 | 0.00 | 0.00 | 86 | 1010.7 |
| 20260502195006 | 51 | 187 | 4.0 | 7.0 | 0.00 | 0.00 | 0.00 | 86 | 1010.7 |
| 20260502194520 | 51 | 160 | 3.0 | 6.0 | 0.00 | 0.00 | 0.00 | 86 | 1010.9 |
| 20260502194007 | 51 | 169 | 3.0 | 6.0 | 0.00 | 0.00 | 0.00 | 87 | 1010.8 |
| 20260502193508 | 51 | 151 | 1.0 | 9.0 | 0.00 | 0.00 | 0.00 | 86 | 1010.8 |
| 20260502193027 | 51 | 163 | 4.0 | 9.0 | 0.00 | 0.00 | 0.00 | 86 | 1011.0 |
| 20260502192509 | 51 | 188 | 5.0 | 7.0 | 0.00 | 0.00 | 0.00 | 86 | 1011.0 |
| 20260502192010 | 51 | 172 | 3.0 | 7.0 | 0.00 | 0.00 | 0.00 | 86 | 1011.0 |
| 20260502191525 | 51 | 187 | 3.0 | 5.0 | 0.00 | 0.00 | 0.00 | 86 | 1011.1 |
| 20260502191010 | 51 | 209 | 2.0 | 7.0 | 0.00 | 0.00 | 0.00 | 86 | 1011.2 |
| 20260502190506 | 51 | 199 | 2.0 | 7.0 | 0.00 | 0.00 | 0.00 | 86 | 1011.2 |
| 20260502190014 | 51 | 180 | 3.0 | 7.0 | 0.00 | 0.00 | 0.00 | 86 | 1011.2 |
| 20260502185506 | 51 | 148 | 3.0 | 7.0 | 0.00 | 0.00 | 0.00 | 86 | 1011.2 |
| 20260502185002 | 51 | 171 | 3.0 | 6.0 | 0.00 | 0.00 | 0.00 | 86 | 1011.3 |
| 20260502184505 | 51 | 179 | 3.0 | 6.0 | 0.00 | 0.00 | 0.00 | 86 | 1011.4 |
| 20260502184003 | 51 | 196 | 2.0 | 6.0 | 0.00 | 0.00 | 0.00 | 86 | 1011.3 |
| 20260502183503 | 51 | 180 | 3.0 | 7.0 | 0.00 | 0.00 | 0.00 | 86 | 1011.4 |
| 20260502183006 | 51 | 186 | 3.0 | 8.0 | 0.00 | 0.00 | 0.00 | 86 | 1011.4 |
| 20260502182503 | 51 | 162 | 5.0 | 8.0 | 0.00 | 0.00 | 0.00 | 86 | 1011.4 |
| 20260502182004 | 51 | 189 | 4.0 | 7.0 | 0.00 | 0.00 | 0.00 | 86 | 1011.3 |
| 20260502181507 | 51 | 196 | 4.0 | 7.0 | 0.00 | 0.00 | 0.00 | 86 | 1011.3 |
| 20260502181003 | 51 | 181 | 3.0 | 6.0 | 0.00 | 0.00 | 0.00 | 86 | 1011.4 |
| 20260502180504 | 51 | 175 | 3.0 | 6.0 | 0.00 | 0.00 | 0.00 | 86 | 1011.5 |
| 20260502170506 | 52 | 205 | 0.0 | 2.0 | 0.00 | 0.00 | 0.00 | 84 | 1011.8 |
| 20260502164003 | 52 | 242 | 0.0 | 0.0 | 0.00 | 0.00 | 0.00 | 84 | 1011.7 |
| 20260502163506 | 52 | 244 | 0.0 | 0.0 | 0.00 | 0.00 | 0.00 | 84 | 1011.7 |
| 20260502163018 | 52 | 248 | 0.0 | 0.0 | 0.00 | 0.00 | 0.00 | 84 | 1011.7 |
| 20260502162507 | 52 | 257 | 0.0 | 0.0 | 0.00 | 0.00 | 0.00 | 84 | 1011.8 |
| 20260502162012 | 52 | 257 | 0.0 | 1.0 | 0.00 | 0.00 | 0.00 | 84 | 1011.7 |
| 20260502161505 | 52 | 258 | 0.0 | 2.0 | 0.00 | 0.00 | 0.00 | 84 | 1011.8 |
| 20260502161007 | 52 | 239 | 1.0 | 2.0 | 0.00 | 0.00 | 0.00 | 84 | 1011.7 |
| 20260502160508 | 52 | 254 | 1.0 | 2.0 | 0.00 | 0.00 | 0.00 | 84 | 1011.9 |
| 20260502152006 | 52 | 220 | 1.0 | 2.0 | 0.00 | 0.00 | 0.00 | 83 | 1012.1 |
| 20260502151521 | 52 | 218 | 1.0 | 3.0 | 0.00 | 0.00 | 0.00 | 83 | 1012.1 |
| 20260502151011 | 52 | 208 | 1.0 | 3.0 | 0.00 | 0.00 | 0.00 | 83 | 1012.1 |
| 20260502150507 | 52 | 219 | 1.0 | 3.0 | 0.00 | 0.00 | 0.00 | 83 | 1012.2 |
| 20260502130507 | 53 | 153 | 1.0 | 2.0 | 0.00 | 0.00 | 0.00 | 80 | 1012.0 |
| 20260502123512 | 52 | 314 | 0.0 | 0.0 | 0.00 | 0.00 | 0.00 | 82 | 1012.6 |
| 20260502123014 | 52 | 13 | 0.0 | 0.0 | 0.00 | 0.00 | 0.00 | 82 | 1012.4 |
| 20260502122508 | 52 | 13 | 0.0 | 2.0 | 0.00 | 0.00 | 0.00 | 81 | 1012.4 |
| 20260502122004 | 52 | 13 | 0.0 | 2.0 | 0.00 | 0.00 | 0.00 | 81 | 1012.5 |
| 20260502121514 | 52 | 307 | 0.0 | 2.0 | 0.00 | 0.00 | 0.00 | 81 | 1012.5 |
| 20260502121004 | 52 | 315 | 0.0 | 1.0 | 0.00 | 0.00 | 0.00 | 82 | 1012.7 |
| 20260502120508 | 52 | 288 | 0.0 | 0.0 | 0.00 | 0.00 | 0.00 | 82 | 1012.8 |
| 20260502115512 | 52 | 254 | 0.0 | 0.0 | 0.00 | 0.00 | 0.00 | 82 | 1012.7 |
| 20260502115008 | 52 | 254 | 0.0 | 0.0 | 0.00 | 0.00 | 0.00 | 82 | 1012.7 |
| 20260502114521 | 52 | 283 | 0.0 | 0.0 | 0.00 | 0.00 | 0.00 | 82 | 1012.5 |
| 20260502114008 | 52 | 283 | 0.0 | 0.0 | 0.00 | 0.00 | 0.00 | 82 | 1012.4 |
| 20260502113511 | 52 | 283 | 0.0 | 0.0 | 0.00 | 0.00 | 0.00 | 82 | 1012.3 |
| 20260502113024 | 51 | 283 | 0.0 | 1.0 | 0.00 | 0.00 | 0.00 | 83 | 1012.3 |
| 20260502112510 | 51 | 283 | 0.0 | 1.0 | 0.00 | 0.00 | 0.00 | 83 | 1012.4 |
| 20260502112009 | 51 | 292 | 0.0 | 3.0 | 0.00 | 0.00 | 0.00 | 83 | 1012.3 |
| 20260502111510 | 51 | 244 | 0.0 | 3.0 | 0.00 | 0.00 | 0.00 | 83 | 1012.4 |
| 20260502111004 | 51 | 257 | 2.0 | 3.0 | 0.00 | 0.00 | 0.00 | 84 | 1012.4 |
| 20260502110504 | 51 | 251 | 0.0 | 1.0 | 0.00 | 0.00 | 0.00 | 84 | 1012.2 |
| 20260502110019 | 50 | 243 | 0.0 | 1.0 | 0.00 | 0.00 | 0.00 | 84 | 1012.1 |
| 20260502105507 | 50 | 240 | 0.0 | 0.0 | 0.00 | 0.00 | 0.00 | 84 | 1012.0 |
| 20260502105006 | 50 | 240 | 0.0 | 2.0 | 0.00 | 0.00 | 0.00 | 84 | 1012.0 |
| 20260502104537 | 50 | 212 | 0.0 | 2.0 | 0.00 | 0.00 | 0.00 | 83 | 1012.0 |
| 20260502104009 | 50 | 360 | 0.0 | 0.0 | 0.00 | 0.00 | 0.00 | 84 | 1012.1 |
| 20260502103507 | 50 | 21 | 0.0 | 2.0 | 0.00 | 0.00 | 0.00 | 84 | 1011.9 |
| 20260502103027 | 50 | 309 | 0.0 | 2.0 | 0.00 | 0.00 | 0.00 | 84 | 1011.8 |
| 20260502102512 | 50 | 304 | 0.0 | 4.0 | 0.00 | 0.00 | 0.00 | 84 | 1011.7 |
| 20260502102009 | 50 | 268 | 0.0 | 5.0 | 0.00 | 0.00 | 0.00 | 84 | 1011.8 |
| 20260502101526 | 50 | 252 | 2.0 | 5.0 | 0.00 | 0.00 | 0.00 | 84 | 1011.8 |
| 20260502101008 | 50 | 254 | 3.0 | 4.0 | 0.00 | 0.00 | 0.00 | 84 | 1011.7 |
| 20260502100503 | 50 | 251 | 2.0 | 4.0 | 0.00 | 0.00 | 0.00 | 84 | 1011.6 |
| 20260502091511 | 50 | 239 | 1.0 | 3.0 | 0.00 | 0.00 | 0.00 | 82 | 1011.3 |
| 20260502091005 | 50 | 247 | 2.0 | 3.0 | 0.00 | 0.00 | 0.00 | 82 | 1011.5 |
| 20260502090504 | 50 | 236 | 2.0 | 4.0 | 0.00 | 0.00 | 0.00 | 82 | 1011.6 |
| 20260502071007 | 50 | 252 | 1.0 | 2.0 | 0.00 | 0.00 | 0.00 | 81 | 1011.9 |
| 20260502070512 | 50 | 256 | 1.0 | 2.0 | 0.00 | 0.00 | 0.00 | 81 | 1011.9 |
| 20260502070026 | 50 | 256 | 1.0 | 2.0 | 0.00 | 0.00 | 0.00 | 81 | 1012.0 |
| 20260502065509 | 50 | 243 | 1.0 | 2.0 | 0.00 | 0.00 | 0.00 | 81 | 1012.2 |
| 20260502065012 | 50 | 234 | 1.0 | 4.0 | 0.00 | 0.00 | 0.00 | 80 | 1012.1 |
| 20260502064513 | 50 | 247 | 1.0 | 4.0 | 0.00 | 0.00 | 0.00 | 80 | 1012.2 |
| 20260502064004 | 50 | 238 | 2.0 | 4.0 | 0.00 | 0.00 | 0.00 | 80 | 1012.3 |
| 20260502063505 | 50 | 230 | 2.0 | 4.0 | 0.00 | 0.00 | 0.00 | 80 | 1012.3 |
| 20260502063016 | 50 | 252 | 2.0 | 3.0 | 0.00 | 0.00 | 0.00 | 80 | 1012.2 |
| 20260502062506 | 50 | 248 | 2.0 | 3.0 | 0.00 | 0.00 | 0.00 | 79 | 1012.0 |
| 20260502062008 | 50 | 260 | 2.0 | 3.0 | 0.00 | 0.00 | 0.00 | 79 | 1012.0 |
| 20260502061520 | 50 | 232 | 2.0 | 3.0 | 0.00 | 0.00 | 0.00 | 79 | 1012.2 |
| 20260502061009 | 50 | 246 | 1.0 | 3.0 | 0.00 | 0.00 | 0.00 | 79 | 1012.1 |
| 20260502060508 | 50 | 241 | 2.0 | 3.0 | 0.00 | 0.00 | 0.00 | 79 | 1012.3 |
| 20260502060024 | 50 | 250 | 1.0 | 3.0 | 0.00 | 0.00 | 0.00 | 79 | 1012.3 |
| 20260502055508 | 50 | 245 | 1.0 | 3.0 | 0.00 | 0.00 | 0.00 | 78 | 1012.3 |
| 20260502055015 | 50 | 251 | 2.0 | 2.0 | 0.00 | 0.00 | 0.00 | 78 | 1012.2 |
| 20260502054526 | 50 | 244 | 2.0 | 2.0 | 0.00 | 0.00 | 0.00 | 78 | 1012.0 |
| 20260502054008 | 50 | 235 | 1.0 | 3.0 | 0.00 | 0.00 | 0.00 | 77 | 1012.1 |
| 20260502053507 | 50 | 227 | 1.0 | 3.0 | 0.00 | 0.00 | 0.00 | 77 | 1012.1 |
| 20260502053016 | 50 | 236 | 2.0 | 3.0 | 0.00 | 0.00 | 0.00 | 77 | 1012.4 |
| 20260502052506 | 50 | 238 | 2.0 | 3.0 | 0.00 | 0.00 | 0.00 | 77 | 1012.5 |
| 20260502052009 | 50 | 232 | 1.0 | 3.0 | 0.00 | 0.00 | 0.00 | 76 | 1012.4 |
| 20260502051533 | 50 | 232 | 2.0 | 3.0 | 0.00 | 0.00 | 0.00 | 77 | 1012.4 |
| 20260502051011 | 50 | 234 | 2.0 | 3.0 | 0.00 | 0.00 | 0.00 | 76 | 1012.6 |
| 20260502050507 | 50 | 232 | 2.0 | 3.0 | 0.00 | 0.00 | 0.00 | 76 | 1012.6 |
| 20260502050022 | 50 | 234 | 2.0 | 4.0 | 0.00 | 0.00 | 0.00 | 76 | 1012.5 |
| 20260502045508 | 50 | 246 | 2.0 | 4.0 | 0.00 | 0.00 | 0.00 | 76 | 1012.7 |
| 20260502045008 | 50 | 236 | 2.0 | 4.0 | 0.00 | 0.00 | 0.00 | 75 | 1012.9 |
| 20260502044528 | 50 | 242 | 2.0 | 3.0 | 0.00 | 0.00 | 0.00 | 75 | 1013.0 |
| 20260502044010 | 50 | 253 | 2.0 | 4.0 | 0.00 | 0.00 | 0.00 | 75 | 1012.8 |
| 20260502043509 | 50 | 244 | 2.0 | 4.0 | 0.00 | 0.00 | 0.00 | 75 | 1012.8 |
| 20260502043028 | 50 | 254 | 1.0 | 4.0 | 0.00 | 0.00 | 0.00 | 74 | 1012.7 |
| 20260502042509 | 50 | 223 | 2.0 | 4.0 | 0.00 | 0.00 | 0.00 | 75 | 1012.5 |
| 20260502042012 | 50 | 259 | 2.0 | 4.0 | 0.00 | 0.00 | 0.00 | 75 | 1012.6 |
| 20260502041529 | 49 | 234 | 2.0 | 4.0 | 0.00 | 0.00 | 0.00 | 75 | 1012.6 |
| 20260502041004 | 49 | 244 | 3.0 | 4.0 | 0.00 | 0.00 | 0.00 | 76 | 1012.6 |
| 20260502040506 | 48 | 230 | 2.0 | 3.0 | 0.00 | 0.00 | 0.00 | 77 | 1012.7 |
| 20260502040019 | 48 | 219 | 2.0 | 3.0 | 0.00 | 0.00 | 0.00 | 77 | 1012.6 |
| 20260502035507 | 48 | 229 | 2.0 | 3.0 | 0.00 | 0.00 | 0.00 | 78 | 1012.7 |
| 20260502035010 | 48 | 188 | 1.0 | 3.0 | 0.00 | 0.00 | 0.00 | 79 | 1012.8 |
| 20260502034537 | 48 | 333 | 0.0 | 0.0 | 0.00 | 0.00 | 0.00 | 79 | 1012.9 |